Terug naar catalogus

STARLINK-34022

ActiefCommunicatieVLEO
NORAD 63866·PAYLOAD·🇺🇸 United States

Gelanceerd May 10, 2025 vanaf Vandenberg Space Force Base

Loading…

Volgende Passages (komende 24 uur)

TLE

VersSource: CelesTrak SupGP

Epoch: Sep 14, 2026, 20:51 UTC

1 63866C 25094C   26257.86923611 -.00021689  00000+0 -75464-3 0  2570
2 63866  69.9990 115.7571 0003181 269.8303  81.3635 15.29583109    14

Volg STARLINK-34022 in realtime met AllMySat

Download on the App Store